When you browse on this site, cookies collect data to enhance your experience and personalize the content and advertising you see.
Visit our Privacy Policy to learn more. By continuing to use the site, you agree to this use of cookies and data.
  • En España
  • Lista de países
  • Para 7 días
  • Temperatura del agua
  • Mapa Satelital
  • El tiempo en el mapa
  • Informadores
  • user-avatar
    Iniciar sesión

    Tiempo cada hora Barcelona

    Hoy, 19 Diciembre, Miércoles

    Tiempo Temperatura Precipitaciones Viento Presión Humedad
    00:00 +25°C° 0 mm 4 mps 760 mmHg 86%
    01:00 +25°C° 0 mm 3 mps 760 mmHg 86%
    02:00 +25°C° 0 mm 3 mps 760 mmHg 86%
    03:00 +25°C° 0 mm 3 mps 760 mmHg 87%
    04:00 +24°C° 0 mm 3 mps 760 mmHg 87%
    05:00 +24°C° 0 mm 2 mps 760 mmHg 88%
    06:00 +25°C° 0 mm 2 mps 760 mmHg 83%
    07:00 +27°C° 0 mm 2 mps 760 mmHg 78%
    08:00 +28°C° 0 mm 2 mps 761 mmHg 72%
    09:00 +30°C° 0 mm 2 mps 761 mmHg 65%
    10:00 +34°C° 0 mm 3 mps 761 mmHg 57%
    11:00 +36°C° 0 mm 3 mps 761 mmHg 49%
    12:00 +36°C° 0 mm 3 mps 760 mmHg 50%
    13:00 +36°C° 0 mm 3 mps 759 mmHg 52%
    14:00 +35°C° 0 mm 4 mps 758 mmHg 53%
    15:00 +34°C° 0 mm 4 mps 758 mmHg 56%
    16:00 +34°C° 0 mm 4 mps 758 mmHg 59%
    17:00 +33°C° 0 mm 4 mps 757 mmHg 63%
    18:00 +30°C° 0 mm 4 mps 757 mmHg 69%
    19:00 +29°C° 0 mm 4 mps 758 mmHg 76%
    20:00 +27°C° 0 mm 4 mps 758 mmHg 83%
    21:00 +27°C° 0.1 mm 4 mps 759 mmHg 84%
    22:00 +26°C° 0.1 mm 4 mps 759 mmHg 85%
    23:00 +26°C° 0.1 mm 4 mps 759 mmHg 86%

    Mañana, 20 Diciembre, Jueves

    Tiempo Temperatura Precipitaciones Viento Presión Humedad
    00:00 +26°C° 0 mm 3 mps 759 mmHg 86%
    01:00 +26°C° 0 mm 3 mps 759 mmHg 87%
    02:00 +25°C° 0 mm 3 mps 759 mmHg 87%
    03:00 +25°C° 0 mm 3 mps 759 mmHg 87%
    04:00 +25°C° 0 mm 2 mps 759 mmHg 88%
    05:00 +25°C° 0 mm 2 mps 759 mmHg 88%
    06:00 +26°C° 0 mm 2 mps 759 mmHg 83%
    07:00 +27°C° 0 mm 2 mps 760 mmHg 78%
    08:00 +28°C° 0 mm 2 mps 761 mmHg 72%
    09:00 +31°C° 0 mm 2 mps 761 mmHg 63%
    10:00 +34°C° 0 mm 2 mps 761 mmHg 54%
    11:00 +37°C° 0 mm 2 mps 761 mmHg 45%
    12:00 +37°C° 0 mm 2 mps 760 mmHg 44%
    13:00 +37°C° 0 mm 3 mps 759 mmHg 44%
    14:00 +37°C° 0 mm 4 mps 758 mmHg 44%
    15:00 +36°C° 0 mm 4 mps 757 mmHg 48%
    16:00 +35°C° 0 mm 5 mps 757 mmHg 52%
    17:00 +34°C° 0 mm 5 mps 757 mmHg 57%
    18:00 +32°C° 0 mm 5 mps 757 mmHg 63%
    19:00 +29°C° 0 mm 5 mps 758 mmHg 70%
    20:00 +28°C° 0 mm 5 mps 758 mmHg 76%
    21:00 +27°C° 0 mm 5 mps 759 mmHg 79%
    22:00 +27°C° 0 mm 5 mps 759 mmHg 81%
    23:00 +27°C° 0 mm 4 mps 759 mmHg 83%

    Pasado mañana, 21 Diciembre, Viernes

    Tiempo Temperatura Precipitaciones Viento Presión Humedad
    00:00 +26°C° 0 mm 4 mps 759 mmHg 85%
    01:00 +26°C° 0 mm 4 mps 759 mmHg 87%
    02:00 +25°C° 0 mm 3 mps 758 mmHg 88%
    03:00 +25°C° 0 mm 3 mps 758 mmHg 89%
    04:00 +25°C° 0 mm 3 mps 758 mmHg 89%
    05:00 +25°C° 0 mm 3 mps 758 mmHg 89%
    06:00 +26°C° 0 mm 3 mps 759 mmHg 83%
    07:00 +27°C° 0 mm 2 mps 760 mmHg 78%
    08:00 +28°C° 0 mm 2 mps 760 mmHg 72%
    09:00 +31°C° 0 mm 2 mps 760 mmHg 62%
    10:00 +34°C° 0 mm 2 mps 760 mmHg 53%
    11:00 +37°C° 0 mm 2 mps 760 mmHg 44%
    12:00 +37°C° 0 mm 3 mps 759 mmHg 43%
    13:00 +37°C° 0 mm 3 mps 759 mmHg 42%
    14:00 +37°C° 0 mm 3 mps 758 mmHg 40%
    15:00 +36°C° 0 mm 4 mps 757 mmHg 45%
    16:00 +35°C° 0 mm 4 mps 757 mmHg 50%
    17:00 +33°C° 0 mm 5 mps 757 mmHg 54%
    18:00 +32°C° 0 mm 5 mps 757 mmHg 61%
    19:00 +29°C° 0 mm 5 mps 758 mmHg 68%
    20:00 +28°C° 0 mm 5 mps 759 mmHg 75%
    21:00 +27°C° 0 mm 5 mps 759 mmHg 76%
    22:00 +26°C° 0 mm 5 mps 759 mmHg 77%
    23:00 +26°C° 0 mm 4 mps 759 mmHg 78%

    22 Diciembre, Sábado

    Tiempo Temperatura Precipitaciones Viento Presión Humedad
    00:00 +25°C° 0 mm 4 mps 759 mmHg 79%
    01:00 +25°C° 0 mm 4 mps 759 mmHg 81%
    02:00 +23°C° 0 mm 4 mps 759 mmHg 83%
    03:00 +24°C° 0 mm 3 mps 759 mmHg 84%
    04:00 +22°C° 0 mm 3 mps 759 mmHg 86%
    05:00 +22°C° 0 mm 3 mps 759 mmHg 87%
    06:00 +24°C° 0 mm 3 mps 760 mmHg 81%
    07:00 +26°C° 0 mm 3 mps 760 mmHg 75%
    08:00 +27°C° 0 mm 2 mps 761 mmHg 69%
    09:00 +30°C° 0 mm 2 mps 761 mmHg 59%
    10:00 +32°C° 0 mm 2 mps 761 mmHg 49%
    11:00 +36°C° 0 mm 2 mps 761 mmHg 38%
    12:00 +36°C° 0 mm 3 mps 760 mmHg 37%
    13:00 +36°C° 0 mm 3 mps 759 mmHg 36%
    14:00 +37°C° 0 mm 4 mps 758 mmHg 34%
    15:00 +35°C° 0 mm 4 mps 758 mmHg 39%
    16:00 +34°C° 0 mm 5 mps 757 mmHg 44%
    17:00 +33°C° 0 mm 5 mps 757 mmHg 49%
    18:00 +30°C° 0 mm 5 mps 758 mmHg 57%
    19:00 +29°C° 0 mm 5 mps 758 mmHg 65%
    20:00 +27°C° 0 mm 5 mps 759 mmHg 73%
    21:00 +27°C° 0 mm 5 mps 759 mmHg 75%
    22:00 +26°C° 0 mm 5 mps 760 mmHg 77%
    23:00 +26°C° 0 mm 4 mps 760 mmHg 78%

    23 Diciembre, Domingo

    Tiempo Temperatura Precipitaciones Viento Presión Humedad
    00:00 +25°C° 0 mm 4 mps 760 mmHg 80%
    01:00 +25°C° 0 mm 4 mps 759 mmHg 82%
    02:00 +25°C° 0 mm 4 mps 759 mmHg 84%
    03:00 +24°C° 0 mm 3 mps 759 mmHg 85%
    04:00 +24°C° 0 mm 3 mps 759 mmHg 87%
    05:00 +24°C° 0 mm 3 mps 759 mmHg 88%
    06:00 +25°C° 0 mm 3 mps 760 mmHg 83%
    07:00 +26°C° 0 mm 3 mps 760 mmHg 79%
    08:00 +26°C° 0 mm 2 mps 761 mmHg 74%
    09:00 +29°C° 0 mm 2 mps 760 mmHg 63%
    10:00 +32°C° 0 mm 2 mps 760 mmHg 52%
    11:00 +36°C° 0 mm 2 mps 760 mmHg 41%
    12:00 +36°C° 0 mm 2 mps 759 mmHg 41%
    13:00 +36°C° 0 mm 3 mps 759 mmHg 40%
    14:00 +36°C° 0 mm 3 mps 758 mmHg 40%
    15:00 +35°C° 0 mm 4 mps 757 mmHg 45%
    16:00 +34°C° 0 mm 4 mps 757 mmHg 51%
    17:00 +33°C° 0 mm 4 mps 757 mmHg 56%
    18:00 +30°C° 0 mm 4 mps 757 mmHg 62%
    19:00 +28°C° 0 mm 4 mps 758 mmHg 69%
    20:00 +27°C° 0 mm 4 mps 758 mmHg 75%
    21:00 +26°C° 0 mm 4 mps 759 mmHg 74%
    22:00 +26°C° 0 mm 4 mps 759 mmHg 74%
    23:00 +25°C° 0 mm 5 mps 759 mmHg 74%

    24 Diciembre, Lunes

    Tiempo Temperatura Precipitaciones Viento Presión Humedad
    00:00 +25°C° 0 mm 4 mps 759 mmHg 74%
    01:00 +23°C° 0 mm 4 mps 759 mmHg 75%
    02:00 +23°C° 0 mm 4 mps 759 mmHg 76%
    03:00 +23°C° 0 mm 4 mps 759 mmHg 77%
    04:00 +24°C° 0 mm 3 mps 759 mmHg 79%
    05:00 +22°C° 0 mm 3 mps 759 mmHg 81%
    06:00 +25°C° 0 mm 3 mps 759 mmHg 76%
    07:00 +26°C° 0 mm 3 mps 760 mmHg 72%
    08:00 +27°C° 0 mm 3 mps 760 mmHg 68%
    09:00 +30°C° 0 mm 3 mps 760 mmHg 59%
    10:00 +34°C° 0 mm 3 mps 760 mmHg 51%
    11:00 +36°C° 0 mm 3 mps 760 mmHg 43%
    12:00 +36°C° 0 mm 3 mps 759 mmHg 44%
    13:00 +36°C° 0 mm 4 mps 758 mmHg 45%
    14:00 +36°C° 0 mm 4 mps 757 mmHg 46%
    15:00 +35°C° 0 mm 4 mps 757 mmHg 50%
    16:00 +34°C° 0 mm 4 mps 757 mmHg 54%
    17:00 +33°C° 0 mm 5 mps 757 mmHg 58%
    18:00 +30°C° 0 mm 5 mps 757 mmHg 64%
    19:00 +29°C° 0 mm 5 mps 758 mmHg 70%
    20:00 +28°C° 0 mm 5 mps 758 mmHg 76%
    21:00 +27°C° 0 mm 5 mps 758 mmHg 77%
    22:00 +27°C° 0 mm 5 mps 758 mmHg 78%
    23:00 +26°C° 0 mm 5 mps 759 mmHg 79%
    Mostrar más